Hourly Data Report for October 03, 2013

All times are specified in Local Standard Time (LST). Add 1 hour to adjust for Daylight Saving Time where and when it is observed.

FREDERICTON
NEW BRUNSWICK

45°52'08.000" N
66°32'14.000" W
20.70 m
8101505
71700
YFC

Download Data

Hourly Data (October 2013)
Hourly Data Report for October 3, 2013
Temp Definition
°C
Dew Point Temp Definition
°C
Rel Hum Definition
%
Wind Dir Definition
10's deg

Wind Spd Definition
km/h
Visibility Definition
km
Stn Press Definition
kPa
Hmdx Definition


Wind Chill Definition


Weather Definition


TIME
00:00 Legend Double Dagger 14.0 8.7 70 27 8 16.1 100.54     LegendNANA
01:00 Legend Double Dagger 13.3 8.4 72 27 9 16.1 100.61     LegendNANA
02:00 Legend Double Dagger 10.7 8.1 84 24 11 16.1 100.66     LegendNANA
03:00 Legend Double Dagger 10.2 7.5 83 24 13 16.1 100.71     LegendNANA
04:00 Legend Double Dagger 9.6 7.2 85 23 15 16.1 100.76     LegendNANA
05:00 Legend Double Dagger 10.9 7.1 77 25 13 16.1 100.82     LegendNANA
06:00 Legend Double Dagger 10.1 6.8 80 24 9 16.1 100.88     LegendNANA
07:00 Legend Double Dagger 9.6 6.7 82 23 13 16.1 100.94     LegendNANA
08:00 Legend Double Dagger 12.7 7.3 70 24 11 16.1 101.03     LegendNANA
09:00 Legend Double Dagger 15.9 6.8 54 29 13 16.1 101.07     LegendNANA
10:00 Legend Double Dagger 16.8 6.5 50 29 17 16.1 101.07     LegendNANA
11:00 Legend Double Dagger 17.9 5.8 45 29 21 16.1 101.02     LegendNANA
12:00 Legend Double Dagger 19.0 5.4 41 27 22 16.1 101.00     LegendNANA
13:00 Legend Double Dagger 19.6 5.8 40 30 17 16.1 100.95     LegendNANA
14:00 Legend Double Dagger 20.2 4.7 36 27 21 16.1 100.92     LegendNANA
15:00 Legend Double Dagger 20.7 4.6 34 28 18 16.1 100.92     LegendNANA
16:00 Legend Double Dagger 20.7 4.9 35 27 18 16.1 100.94     LegendNANA
17:00 Legend Double Dagger 19.9 5.2 38 28 11 16.1 100.97     LegendNANA
18:00 Legend Double Dagger 17.4 5.6 46 30 13 16.1 101.02     LegendNANA
19:00 Legend Double Dagger 15.4 4.9 49 28 9 16.1 101.10     LegendNANA
20:00 Legend Double Dagger 15.3 4.8 49 28 13 16.1 101.15     LegendNANA
21:00 Legend Double Dagger 10.6 5.9 73 23 11 16.1 101.21     LegendNANA
22:00 Legend Double Dagger 12.2 5.8 65 28 5 16.1 101.26     LegendNANA
23:00 Legend Double Dagger 10.7 6.5 75 26 5 16.1 101.26     LegendNANA

Notes on Data Quality.

Legend

  • E = Estimated
  • M = Missing
  • NA = Not Available
  • ‡ = Partner data that is not subject to review by the National Climate Archives
Date modified: